Location: Lubbon
(44.1046°N, 0.0285°W)
Time: 11:19:59
(UTC+00:00)

Daily predictions for brighter satellites

Satellite Brightness Start Highest point End
(mag) Time Altitude Azimuth Time Altitude Azimuth Time Altitude Azimuth
CZ-4 R/B 1.9 19:20:24 10° SE 19:23:48 34° ENE 19:27:09 10° N
SPOT 5 2.7 19:22:57 10° SSE 19:27:25 64° ENE 19:31:45 10° N
NOSS 3-4 (A) 3.7 19:22:47 10° SW 19:27:59 63° NW 19:33:44 10° NNE
NOSS 3-4 (C) 3.7 19:23:17 10° SW 19:28:31 63° NW 19:34:18 10° NNE
Cosmos 1656 Rocket 4.2 19:26:53 10° NNW 19:32:03 41° ENE 19:37:15 10° SE
Cosmos 1025 Rocket 4.3 19:29:28 10° NNE 19:32:57 24° ENE 19:36:25 10° SE
Helios 1A Rocket 2.9 19:31:20 10° NNE 19:34:17 33° E 19:37:13 10° SSE
Cosmos 1733 Rocket 3.1 19:30:50 10° S 19:35:07 60° E 19:39:28 10° NNE
CZ-4B R/B 3.8 19:31:40 10° SSE 19:35:20 57° ENE 19:39:09 10° N
Terra 2.7 19:32:37 10° SE 19:36:45 32° ENE 19:40:53 10° N
SJ-6B 3.8 19:33:46 10° S 19:37:15 44° W 19:40:44 10° NNW
Cosmos 2242 Rocket 3.7 19:32:51 10° N 19:37:15 59° E 19:41:35 10° SSE
BREEZE-M DEB (TANK) 3.1 19:35:44 10° WNW 19:38:08 37° NNE 19:42:42 10° E
IRAS Rocket 4.2 19:34:27 10° SSE 19:39:54 72° ENE 19:45:22 10° NNW
Gblst 52 Del rocket 4.4 19:34:57 10° SW 19:40:46 86° SSE 19:47:25 10° ENE
Resurs 01 Rocket 3.7 19:37:28 10° SSW 19:41:15 28° W 19:45:03 10° NW
Cosmos 1821 Rocket 4.1 19:35:29 10° S 19:41:40 65° E 19:47:58 10° NNE
Cosmos 2237 Rocket 2.7 19:36:59 10° SW 19:42:38 66° WNW 19:48:20 10° NNE
Meteor 2-15 4.4 19:37:31 10° S 19:43:35 84° E 19:49:43 10° N
Cosmos 1980 4.4 19:39:04 10° SW 19:44:38 59° WNW 19:50:13 10° NNE
Cosmos 2218 Rocket 4.1 19:41:34 10° S 19:47:41 84° W 19:53:53 10° N
CSL-04 Rocket 3.8 19:42:59 10° SSE 19:48:33 88° W 19:54:08 10° NNW
Meteor 2-15 Rocket 4.4 19:45:03 10° S 19:51:04 70° E 19:57:08 10° NNE
BREEZE-M DEB (TANK) 3.7 19:49:41 10° WNW 19:51:48 31° N 19:55:12 10° ENE
Cosmos 1346 Rocket 3.3 19:49:27 10° N 19:52:46 34° ENE 19:55:10 16° SE
SL-4 R/B 3.1 19:53:26 10° S 19:56:15 20° SE 19:57:34 17° ESE
Cosmos 1400 Rocket 2.5 19:53:03 10° S 19:56:38 86° W 20:00:17 10° N
OAO 3 Rocket 4.5 19:52:54 10° WSW 19:56:41 25° S 19:59:27 15° SE
BREEZE-M DEB (TANK) 4.0 19:53:13 10° S 19:56:49 36° ESE 20:06:46 10° ENE
Cosmos 1812 0.3 19:56:45 18° S 19:57:50 86° E 19:59:30 10° N
SL-24 R/B 4.5 19:53:44 10° NNE 19:59:11 87° ESE 20:03:59 10° SSW
Cosmos 1602 4.3 19:58:16 10° NNE 19:59:37 16° ENE 19:59:37 16° ENE
Meteor 1-31 Rocket 2.7 19:56:26 10° S 19:59:56 73° WSW 20:03:28 10° NNW
TIMED 4.4 19:56:31 10° NNW 20:00:48 86° WSW 20:04:49 11° SSE
Cosmos 1943 Rocket 4.0 19:57:11 10° NW 20:02:00 29° WSW 20:06:45 10° SSW
ASTEX 1 4.2 19:59:48 16° SE 20:03:00 32° ENE 20:07:21 10° NNE
Gbstr 26 Del rocket 4.3 19:58:44 10° S 20:03:12 26° SE 20:06:31 13° E
USA 59 Rocket 0.1 20:00:21 10° NW 20:03:52 68° SW 20:07:46 14° SSE
Feng Yun 1-1 Rocket 4.2 20:00:28 10° SSE 20:05:58 83° ENE 20:11:24 10° NNW
Cosmos 1869 4.3 20:06:01 21° ESE 20:06:39 22° E 20:09:27 10° NE
ADEOS 3.6 20:06:32 14° SSE 20:11:01 64° ENE 20:16:11 10° N
Cosmos 2369 Rocket 2.8 20:06:22 10° NNW 20:11:38 40° ENE 20:14:59 20° ESE
Aureole 3 4.5 20:07:11 10° NNW 20:12:28 74° W 20:18:37 10° S
USA 186 3.1 20:14:08 15° NE 20:14:08 15° NE 20:15:11 10° NNE
CBERS 1 LM4 rocket 4.3 20:10:01 13° SSE 20:14:15 81° ENE 20:19:04 10° NNW
RESURS DK-1 4.4 20:12:01 10° WSW 20:15:32 30° NW 20:19:04 10° N
SL-08 R/B 3.5 20:10:50 10° NNE 20:15:40 54° E 20:20:26 10° S
MOS 1 4.3 20:10:30 10° SSE 20:16:08 88° E 20:21:51 10° NNW
Cosmos 2285 Rocket 4.0 20:12:50 10° S 20:19:01 58° ESE 20:25:14 10° NNE
Cosmos 2221 Rocket 3.8 20:16:01 10° N 20:20:19 51° ENE 20:22:40 25° SE
USA 234 3.2 20:14:41 10° NE 20:21:13 68° SE 20:27:44 10° SW
SKYMED 3 4.1 20:19:42 10° NNE 20:23:37 78° ESE 20:27:30 10° S
Cosmos 405 Rocket 4.0 20:22:47 10° NNE 20:24:26 17° ENE 20:24:26 17° ENE
Cosmos 1943 3.9 20:23:24 21° SE 20:25:57 30° ESE 20:30:50 10° NE
Molniya-1 2.8 20:24:38 10° SSW 20:27:08 80° ESE 20:31:52 10° NE
CZ-4B R/B 4.2 20:27:35 18° ENE 20:27:38 18° ENE 20:30:03 10° NNE
CZ-4B R/B 3.3 20:23:42 14° SSE 20:28:37 86° WSW 20:34:19 10° NNW
Cosmos 2278 Rocket 4.4 20:24:39 10° NW 20:28:54 22° W 20:33:08 10° SSW
SL-8 R/B 3.9 20:26:35 10° WSW 20:31:17 71° NNW 20:36:01 10° ENE
OAO 2 Rocket 4.3 20:29:07 10° WSW 20:33:32 29° S 20:34:49 26° SSE
Cosmos 1975 Rocket 4.3 20:31:45 10° NNE 20:35:25 25° ENE 20:35:59 24° E
ERS-1 Rocket 3.4 20:33:53 12° S 20:38:25 59° W 20:43:24 10° NNW
Cosmos 1674 Rocket 4.2 20:37:38 10° NNW 20:41:52 53° W 20:45:17 15° SSW
Cosmos 2263 4.5 20:37:19 10° NNW 20:42:52 53° ENE 20:45:15 32° ESE
Cosmos 2292 Rocket 3.6 20:41:27 10° NNW 20:45:31 59° W 20:47:05 29° SSW
Okean-O 2.5 20:44:32 37° SSE 20:46:11 74° ENE 20:50:34 10° N
Cosmos 2298 Rocket 4.0 20:42:40 10° SSW 20:47:58 84° WNW 20:53:19 10° NNE
Cosmos 1908 Rocket 3.7 20:45:39 13° SSW 20:49:25 73° W 20:53:44 10° N
Cosmos 44 4.2 20:44:28 10° SW 20:49:26 55° NW 20:54:40 10° NNE
NOSS 2-1 (E) 4.5 20:48:15 10° NW 20:51:38 36° WSW 20:53:26 25° S
Okean O Rocket 1.5 20:53:05 39° S 20:54:40 86° WSW 20:59:01 10° NNW
BREEZE-M DEB (TANK) 4.4 20:50:51 10° WNW 20:55:45 29° SW 20:56:25 27° SSW
CZ-4B R/B 3.8 20:55:25 38° E 20:56:22 42° ENE 21:00:50 10° N
CZ-4 R/B 3.8 20:55:26 10° SW 20:57:55 17° W 21:00:23 10° NW
Ariane Rocket 3.6 20:57:13 35° E 20:58:15 39° ENE 21:02:55 10° N
SL-16 R/B 2.8 20:53:09 10° SW 20:58:43 59° WNW 21:04:20 10° NNE
Cosmos 1782 Rocket 3.4 20:58:38 51° SSE 20:59:36 71° E 21:03:54 10° NNE
Cosmos 1934 Rocket 4.0 20:54:46 13° S 21:00:30 88° W 21:06:44 10° N
Geosat 4.0 20:57:05 10° NNE 21:02:06 79° WNW 21:07:05 10° SSW
Spot 2 Rocket 3.6 21:03:20 32° S 21:05:37 69° WSW 21:10:39 10° NNW
USA 245 3.9 21:05:18 50° SE 21:06:29 68° ENE 21:11:56 10° N
Cosmos 1269 Rocket 4.2 21:04:03 10° NNW 21:09:16 57° ENE 21:10:20 47° ESE
MOS 1-B 4.5 21:06:46 30° S 21:09:44 71° WSW 21:15:32 10° NNW
ATLAS 5 CENTAUR R/B 3.6 21:07:03 10° N 21:09:53 18° NE 21:11:03 16° ENE
Cosmos 1140 Rocket 3.5 21:06:43 10° NNW 21:11:49 64° ENE 21:12:46 53° ESE
Terra 3.5 21:10:46 13° SSW 21:14:15 29° W 21:18:19 10° NW
NOSS 3-1 (C) 4.0 21:12:02 10° NW 21:19:17 86° SW 21:23:02 39° SSE
Cosmos 1862 4.0 21:20:26 10° N 21:22:56 39° NNE 21:22:56 39° NNE
Cosmos 1300 Rocket 4.4 21:25:04 28° SW 21:26:54 46° WNW 21:31:03 10° N
Cosmos 2058 3.4 21:24:30 10° N 21:27:31 46° NNE 21:27:31 46° NNE
Cosmos 407 Rocket 4.0 21:23:50 10° N 21:28:43 43° ENE 21:28:58 43° ENE
SL-4 R/B 3.5 21:29:27 10° WSW 21:31:15 26° WSW 21:31:15 26° WSW
Cosmos 371 Rocket 4.1 21:28:53 10° N 21:33:16 37° ENE 21:33:16 37° ENE
COSMOS 2455 3.0 21:34:24 10° NNW 21:40:21 58° NE 21:41:17 52° E
SJ 16-02 2.8 21:37:39 10° N 21:40:32 26° NE 21:40:32 26° NE
Cosmos 1315 Rocket 3.8 21:43:33 41° WNW 21:43:33 41° WNW 21:47:01 10° N
Gbstr 26 Del rocket 3.4 21:44:20 10° WSW 21:48:40 61° W 21:48:40 61° W
SPOT 3 Rocket 3.9 21:48:49 52° SW 21:49:34 57° W 21:54:41 10° NNW
Cosmos 1605 Rocket 4.2 21:47:32 35° SSW 21:50:06 64° W 21:56:13 10° N
Lacrosse 5 rocket 3.4 21:51:26 10° NNW 21:52:47 18° N 21:52:47 18° N
Cosmos 2369 Rocket 3.4 21:50:37 10° NW 21:55:29 32° WSW 21:56:46 28° SW
SeaSat 1 4.1 21:56:42 22° NE 21:57:07 22° NE 22:00:49 10° N
Cosmos 2173 Rocket 4.1 22:03:21 56° ENE 22:03:21 56° ENE 22:08:58 10° NNE
USA 234 4.2 21:57:51 10° NE 22:04:03 47° NNW 22:10:14 10° W
Cosmos 921 Rocket 4.0 22:03:17 10° NNW 22:06:41 44° WNW 22:06:41 44° WNW
Cosmos 1603 3.6 22:07:59 84° NNE 22:07:59 84° NNE 22:13:30 10° NNE
Cosmos 1943 4.2 22:04:58 13° SW 22:09:46 43° WNW 22:15:11 10° NNE
SL-8 R/B 4.4 22:09:24 10° WNW 22:13:50 49° N 22:13:50 49° N
Meteor 2-3 Rocket 4.0 22:09:06 10° N 22:14:03 55° NE 22:14:03 55° NE
NOSS 3-1 (A) 4.0 22:11:46 10° NW 22:19:07 80° SW 22:20:42 62° SSE
Cosmos 2100 Rocket 3.8 22:26:44 87° NNE 22:26:44 87° NNE 22:32:51 10° N
Cosmos 1656 4.0 22:39:54 10° NNW 22:44:20 59° NNW 22:44:20 59° NNW
ATLAS 3B R/B 4.2 22:44:59 10° NNW 22:51:59 34° NE 22:55:41 22° E
ATLAS 5 CENTAUR R/B 3.2 22:47:58 10° NW 22:50:11 32° NW 22:50:11 32° NW
Cosmos 1833 Rocket 3.9 23:01:17 32° NE 23:01:17 32° NE 23:04:22 10° NNE
ALOS 2 4.5 23:03:31 27° NNE 23:03:31 27° NNE 23:05:43 10° N
Cosmos 1818 4.4 23:00:00 10° NW 23:03:52 47° NW 23:03:52 47° NW
ARIANE 5 R/B 4.4 23:10:04 28° N 23:10:04 28° N 23:12:14 10° N
Cosmos 1725 Rocket 4.2 23:08:52 69° NW 23:08:52 69° NW 23:14:42 10° N
DEBRIS 4.3 23:14:40 54° NW 23:15:35 63° N 23:29:26 10° ENE
Cosmos 2233 Rocket 4.2 23:18:32 68° N 23:18:32 68° N 23:23:56 10° N
USA 229 DEB 4.5 23:11:24 10° NNW 23:18:41 53° NE 23:20:33 45° E
SJ 16-02 3.8 23:15:47 10° NW 23:17:02 17° NW 23:17:02 17° NW
Cosmos 2056 Rocket 4.4 23:20:45 47° NNW 23:20:45 47° NNW 23:24:50 10° NNE
ATLAS 2AS CENTAUR R/B 2.8 23:25:29 68° NE 23:25:29 68° NE 23:31:23 10° NE
COSMOS 2455 4.5 23:21:03 10° NW 23:24:25 23° W 23:24:25 23° W
CZ-2C R/B 4.0 23:29:07 33° NE 23:29:07 33° NE 23:33:12 10° N
SeaSat 1 3.9 23:36:18 32° NW 23:36:18 32° NW 23:38:57 10° NNW
ACS3 Solar Sail 3.7 23:41:42 10° NE 23:44:46 16° ENE 23:44:46 16° ENE
Cosmos 1697 Rocket 3.5 23:43:14 10° NNW 23:47:06 46° NNW 23:47:06 46° NNW
